Вернуться в каталог

FREGAT R/B

АктивенHEO
NORAD 42710·ROCKET BODY·🇷🇺 Russia

Запущен May 18, 2017 с Guiana Space Centre

Loading…

Ближайшие Пролёты (ближайшие 24 часа)

TLE

СвежийSource: Space-Track

Эпоха: Sep 14, 2026, 17:33 UTC

1 42710U 17026B   26257.73182731 -.00000120  00000-0  00000-0 0  9998
2 42710   6.6453 326.8742 6235212 341.9678   3.4590  2.45433444 83657

Отслеживайте FREGAT R/B в реальном времени с AllMySat

Download on the App Store